Date String (YYYY-MM-DD hh:mm:ss) UTC,Instrument flags,Ambient pressure (hPa),Sample flow (lpm),Bypass flow (lpm),Sample temperature (°C),Ambient temperature (°C),ASC tube jacket temperature (°C),LED temperature (°C),Box temperature (°C),Sample RH (%),Span deviation,Mass concentration (μg/m³),Mass concentration (μg/m³),Mass concentration (μg/m³)
DateTimeUTC,F1_M11,P_M11,Q1_M11,Q2_M11,T1_M11,T2_M11,T3_M11,T4_M11,T5_M11,U1_M11,ZSPAN_M11,X0_M11,X2_M11,X1_M11
2022-05-07 09:00:00,,0819.2,4.99,0.00,29.9,28.8,00.0,39.0,31.6,10.8,0000.0,0011.63,0003.75,0002.13
2022-05-07 09:01:00,,0819.2,4.99,0.00,29.9,28.8,00.0,39.0,31.6,10.9,0000.0,0011.62,0003.79,0002.12
2022-05-07 09:02:00,,0819.2,5.01,0.00,29.9,28.9,00.0,38.9,31.7,10.8,0000.0,0011.99,0003.81,0002.11
2022-05-07 09:03:00,,0819.2,4.99,0.00,29.9,28.9,00.0,38.9,31.7,10.7,0000.0,0011.76,0003.80,0002.09
2022-05-07 09:04:00,,0819.2,4.99,0.00,29.9,28.9,00.0,38.9,31.6,10.7,0000.0,0011.72,0003.80,0002.07
2022-05-07 09:05:00,,0819.2,4.99,0.00,29.9,28.8,00.0,38.9,31.6,10.6,0000.0,0011.70,0003.87,0002.10
2022-05-07 09:06:00,,0819.2,4.99,0.00,29.9,28.8,00.0,38.9,31.6,10.7,0000.0,0011.10,0003.82,0002.11
2022-05-07 09:07:00,,0819.3,5.00,0.00,29.9,28.8,00.0,38.9,31.7,10.9,0000.0,0010.17,0003.84,0002.15
2022-05-07 09:08:00,,0819.3,5.00,0.00,29.9,28.8,00.0,38.9,31.6,11.5,0000.0,0009.71,0003.85,0002.17
2022-05-07 09:09:00,,0819.3,5.00,0.00,29.9,28.8,00.0,38.9,31.6,11.6,0000.0,0010.43,0003.83,0002.16
2022-05-07 09:10:00,,0819.2,4.99,0.00,29.9,28.8,00.0,38.9,31.6,11.7,0000.0,0010.89,0003.82,0002.17
2022-05-07 09:11:00,,0819.3,4.99,0.00,29.9,28.8,00.0,38.9,31.6,12.2,0000.0,0011.31,0003.81,0002.17
2022-05-07 09:12:00,,0819.3,5.00,0.00,29.9,28.8,00.0,38.9,31.6,12.2,0000.0,0011.14,0003.75,0002.17
2022-05-07 09:13:00,,0819.3,5.00,0.00,29.9,28.8,00.0,38.9,31.5,11.7,0000.0,0010.70,0003.71,0002.17
2022-05-07 09:14:00,,0819.2,5.00,0.00,29.9,28.8,00.0,38.9,31.6,11.8,0000.0,0010.88,0003.74,0002.19
2022-05-07 09:15:00,,0819.2,5.00,0.00,29.9,28.8,00.0,38.9,31.6,11.7,0000.0,0011.30,0003.74,0002.19
2022-05-07 09:16:00,,0819.1,4.99,0.00,29.9,28.9,00.0,38.9,31.6,11.5,0000.0,0011.58,0003.68,0002.18
2022-05-07 09:17:00,,0819.1,5.00,0.00,29.9,28.8,00.0,38.9,31.6,11.0,0000.0,0012.37,0003.71,0002.20
2022-05-07 09:18:00,,0819.1,5.01,0.00,29.9,28.8,00.0,38.9,31.6,10.8,0000.0,0012.31,0003.71,0002.20
2022-05-07 09:19:00,,0819.1,5.00,0.00,29.9,28.8,00.0,38.9,31.5,10.8,0000.0,0012.36,0003.78,0002.21
2022-05-07 09:20:00,,0819.0,5.01,0.00,29.9,28.8,00.0,38.9,31.6,10.8,0000.0,0011.54,0003.82,0002.25
2022-05-07 09:21:00,,0819.1,5.00,0.00,29.9,28.8,00.0,38.9,31.6,10.8,0000.0,0010.84,0003.87,0002.26
2022-05-07 09:22:00,,0819.1,5.00,0.00,29.9,28.8,00.0,38.9,31.5,10.9,0000.0,0010.43,0003.92,0002.29
2022-05-07 09:23:00,,0819.1,4.99,0.00,29.9,28.8,00.0,38.9,31.6,11.1,0000.0,0010.71,0003.93,0002.33
2022-05-07 09:24:00,,0819.1,5.00,0.00,29.9,28.8,00.0,38.9,31.6,11.3,0000.0,0011.04,0003.94,0002.35
2022-05-07 09:25:00,,0819.1,5.00,0.00,29.9,28.8,00.0,38.9,31.6,11.1,0000.0,0010.84,0003.89,0002.35
2022-05-07 09:26:00,,0819.1,5.00,0.00,29.8,28.8,00.0,38.9,31.6,11.2,0000.0,0010.89,0003.88,0002.36
2022-05-07 09:27:00,,0819.1,5.01,0.00,29.8,28.7,00.0,38.9,31.5,10.9,0000.0,0010.37,0003.88,0002.36
2022-05-07 09:28:00,,0819.0,5.00,0.00,29.8,28.7,00.0,38.8,31.5,11.0,0000.0,0009.67,0003.86,0002.37
2022-05-07 09:29:00,,0819.0,5.00,0.00,29.8,28.7,00.0,38.8,31.5,10.7,0000.0,0010.53,0003.84,0002.37
2022-05-07 09:30:00,,0818.9,4.99,0.00,29.8,28.7,00.0,38.8,31.5,10.5,0000.0,0011.21,0003.76,0002.36
2022-05-07 09:31:00,,0819.0,5.00,0.00,29.8,28.7,00.0,38.8,31.5,10.4,0000.0,0011.64,0003.75,0002.32
2022-05-07 09:32:00,,0818.9,5.00,0.00,29.8,28.7,00.0,38.8,31.5,10.6,0000.0,0012.00,0003.71,0002.30
2022-05-07 09:33:00,,0818.9,5.01,0.00,29.8,28.8,00.0,38.8,31.6,10.6,0000.0,0012.38,0003.69,0002.28
2022-05-07 09:34:00,,0818.9,5.00,0.00,29.8,28.8,00.0,38.8,31.6,10.4,0000.0,0012.03,0003.70,0002.26
2022-05-07 09:35:00,,0818.9,4.99,0.00,29.8,28.8,00.0,38.8,31.5,10.4,0000.0,0011.81,0003.74,0002.25
2022-05-07 09:36:00,,0818.9,4.99,0.00,29.8,28.8,00.0,38.8,31.5,10.5,0000.0,0011.83,0003.77,0002.25
2022-05-07 09:37:00,,0818.9,5.00,0.00,29.8,28.8,00.0,38.8,31.5,10.7,0000.0,0011.25,0003.74,0002.23
2022-05-07 09:38:00,,0818.8,5.00,0.00,29.8,28.8,00.0,38.8,31.5,11.8,0000.0,0011.93,0003.76,0002.22
2022-05-07 09:39:00,,0818.8,5.00,0.00,29.8,28.7,00.0,38.8,31.5,11.8,0000.0,0012.29,0003.79,0002.22
2022-05-07 09:40:00,,0818.7,4.99,0.00,29.8,28.7,00.0,38.8,31.5,11.3,0000.0,0011.59,0003.81,0002.20
2022-05-07 09:41:00,,0818.8,5.00,0.00,29.8,28.7,00.0,38.8,31.5,10.5,0000.0,0010.86,0003.84,0002.19
2022-05-07 09:42:00,,0818.8,5.00,0.00,29.8,28.7,00.0,38.8,31.5,10.3,0000.0,0010.42,0003.84,0002.20
2022-05-07 09:43:00,,0818.8,5.00,0.00,29.8,28.7,00.0,38.8,31.5,10.2,0000.0,0010.34,0003.85,0002.21
2022-05-07 09:44:00,,0818.8,5.00,0.00,29.8,28.7,00.0,38.8,31.5,10.2,0000.0,0010.29,0003.79,0002.21
2022-05-07 09:45:00,,0818.8,5.01,0.00,29.8,28.7,00.0,38.8,31.5,10.2,0000.0,0010.33,0003.76,0002.21
2022-05-07 09:46:00,,0818.8,5.00,0.00,29.8,28.7,00.0,38.8,31.5,10.1,0000.0,0010.24,0003.74,0002.21
2022-05-07 09:47:00,,0818.8,5.00,0.00,29.8,28.8,00.0,38.8,31.5,10.2,0000.0,0010.25,0003.71,0002.22
2022-05-07 09:48:00,,0818.8,4.98,0.00,29.8,28.8,00.0,38.8,31.5,10.2,0000.0,0010.48,0003.75,0002.25
2022-05-07 09:49:00,,0818.8,5.02,0.00,29.8,28.8,00.0,38.8,31.5,10.2,0000.0,0010.66,0003.77,0002.27
2022-05-07 09:50:00,,0818.8,5.01,0.00,29.8,28.8,00.0,38.8,31.5,10.2,0000.0,0010.42,0003.80,0002.28
2022-05-07 09:51:00,,0818.8,5.00,0.00,29.8,28.7,00.0,38.8,31.5,10.9,0000.0,0010.28,0003.83,0002.29
2022-05-07 09:52:00,,0818.8,5.00,0.00,29.8,28.7,00.0,38.8,31.4,11.2,0000.0,0010.16,0003.82,0002.31
2022-05-07 09:53:00,,0818.7,5.00,0.00,29.8,28.7,00.0,38.8,31.5,11.2,0000.0,0010.16,0003.81,0002.32
2022-05-07 09:54:00,,0818.7,5.01,0.00,29.8,28.7,00.0,38.8,31.5,10.5,0000.0,0010.01,0003.83,0002.32
2022-05-07 09:55:00,,0818.7,5.00,0.00,29.8,28.7,00.0,38.8,31.5,10.6,0000.0,0009.38,0003.84,0002.33
2022-05-07 09:56:00,,0818.7,4.99,0.00,29.8,28.6,00.0,38.8,31.4,10.5,0000.0,0010.14,0003.85,0002.32
2022-05-07 09:57:00,,0818.7,5.00,0.00,29.8,28.6,00.0,38.8,31.4,10.4,0000.0,0010.19,0003.86,0002.30
2022-05-07 09:58:00,,0818.8,5.00,0.00,29.7,28.7,00.0,38.8,31.4,10.4,0000.0,0010.19,0003.86,0002.28
2022-05-07 09:59:00,,0818.8,5.01,0.00,29.7,28.7,00.0,38.8,31.4,10.3,0000.0,0010.00,0003.84,0002.26
